Tracking 20621 objects as of 29-Mar-2020
HD Live streaming from Space Station
objects crossing your sky now

COSMOS 660

Track COSMOS 660 now!
10-day predictions
COSMOS 660 is classified as:


NORAD ID: 7337
Int'l Code: 1974-044A
Perigee: 381.2 km
Apogee: 1,156.4 km
Inclination: 83.0 °
Period: 100.1 minutes
Semi major axis: 7139 km
RCS: 2.9855 m2 (large)
Launch date: June 18, 1974
Source: Commonwealth of Independent States (former USSR) (CIS)
Launch site: PLESETSK MISSILE AND SPACE COMPLEX (PKMTR)
aabbcc
Your satellite tracking list
Your tracking list is empty




NASA's NSSDC Master Catalog

Two Line Element Set (TLE):
1  7337U 74044A   20088.86578714  .00001538  00000-0  77812-4 0  9999
2  7337  82.9503  20.2796 0542878   3.8357 356.6738 14.39032347312667
Source of the keplerian elements: AFSPC